View from above orbital plane
|
View from above satellite
|
Ground track
|
The orbit data is extracted from the following two-line orbital elements,
1 40906U 15049H 22178.61465644 .00004474 00000-0 21559-3 0 9998
2 40906 97.4919 181.9461 0012965 331.4750 148.7780 15.19180610374467
Epoch (UTC): | 27 June 2022 14:45:06 |
Eccentricity: | 0.0012965 |
inclination: | 97.4919° |
perigee height: | 499 km |
apogee height: | 517 km |
right ascension of ascending node: | 181.9461° |
argument of perigee: | 331.4750° |
revolutions per day: | 15.19180610 |
mean anomaly at epoch: | 148.7780° |
orbit number at epoch: | 37446 |
The dashed part of the orbit path shows where the satellite is in the earth's shadow,
|
|